When you browse on this site, cookies collect data to enhance your experience and personalize the content and advertising you see.
Visit our Privacy Policy to learn more. By continuing to use the site, you agree to this use of cookies and data.
  • In France
  • List of Countries
  • For 7 days
  • Water Temperature
  • Satellite Maps
  • Weather Map
  • Weather Widgets
  • user-avatar
    Login

    Hourly Weather Kyrdzhali

    Today, 25 May, Saturday

    Time Temperature Precipitation Wind Pressure Humidity
    00:00 +13°C° 0 mm 1 mps 723 mmHg 84%
    01:00 +13°C° 0 mm 1 mps 723 mmHg 85%
    02:00 +11°C° 0 mm 0 mps 723 mmHg 85%
    03:00 +12°C° 0 mm 1 mps 723 mmHg 85%
    04:00 +12°C° 0 mm 1 mps 723 mmHg 84%
    05:00 +11°C° 0 mm 1 mps 723 mmHg 84%
    06:00 +13°C° 0 mm 1 mps 724 mmHg 78%
    07:00 +15°C° 0 mm 1 mps 724 mmHg 73%
    08:00 +19°C° 0 mm 1 mps 724 mmHg 67%
    09:00 +20°C° 0.2 mm 1 mps 724 mmHg 65%
    10:00 +21°C° 0.2 mm 1 mps 724 mmHg 63%
    11:00 +22°C° 0.2 mm 1 mps 725 mmHg 60%
    12:00 +22°C° 0.8 mm 1 mps 725 mmHg 60%
    13:00 +22°C° 0.8 mm 1 mps 725 mmHg 59%
    14:00 +23°C° 0.8 mm 1 mps 725 mmHg 58%
    15:00 +23°C° 0.8 mm 1 mps 725 mmHg 59%
    16:00 +23°C° 0.8 mm 1 mps 725 mmHg 59%
    17:00 +23°C° 0.8 mm 1 mps 725 mmHg 60%
    18:00 +21°C° 0.1 mm 1 mps 725 mmHg 67%
    19:00 +19°C° 0.1 mm 1 mps 725 mmHg 74%
    20:00 +16°C° 0.1 mm 1 mps 724 mmHg 82%
    21:00 +16°C° 0 mm 1 mps 725 mmHg 82%
    22:00 +15°C° 0 mm 1 mps 725 mmHg 82%
    23:00 +15°C° 0 mm 1 mps 726 mmHg 83%

    Tomorrow, 26 May, Sunday

    Time Temperature Precipitation Wind Pressure Humidity
    00:00 +14°C° 0 mm 1 mps 726 mmHg 82%
    01:00 +14°C° 0 mm 1 mps 726 mmHg 81%
    02:00 +14°C° 0 mm 1 mps 726 mmHg 81%
    03:00 +14°C° 0 mm 1 mps 726 mmHg 80%
    04:00 +13°C° 0 mm 1 mps 726 mmHg 80%
    05:00 +13°C° 0 mm 1 mps 726 mmHg 80%
    06:00 +15°C° 0 mm 1 mps 726 mmHg 75%
    07:00 +17°C° 0 mm 0 mps 727 mmHg 69%
    08:00 +19°C° 0 mm 0 mps 727 mmHg 64%
    09:00 +22°C° 0 mm 1 mps 727 mmHg 61%
    10:00 +23°C° 0 mm 1 mps 728 mmHg 57%
    11:00 +25°C° 0 mm 2 mps 728 mmHg 54%
    12:00 +25°C° 0 mm 2 mps 728 mmHg 54%
    13:00 +26°C° 0 mm 3 mps 728 mmHg 54%
    14:00 +26°C° 0 mm 3 mps 728 mmHg 55%
    15:00 +26°C° 0.2 mm 3 mps 728 mmHg 57%
    16:00 +25°C° 0.2 mm 3 mps 727 mmHg 60%
    17:00 +25°C° 0.2 mm 3 mps 727 mmHg 62%
    18:00 +23°C° 0.1 mm 2 mps 727 mmHg 70%
    19:00 +20°C° 0.1 mm 2 mps 727 mmHg 77%
    20:00 +18°C° 0.1 mm 2 mps 727 mmHg 85%
    21:00 +17°C° 0 mm 2 mps 727 mmHg 85%
    22:00 +18°C° 0 mm 1 mps 727 mmHg 86%
    23:00 +16°C° 0 mm 1 mps 727 mmHg 86%

    Day after tomorrow, 27 May, Monday

    Time Temperature Precipitation Wind Pressure Humidity
    00:00 +16°C° 0 mm 1 mps 727 mmHg 85%
    01:00 +16°C° 0 mm 1 mps 727 mmHg 84%
    02:00 +15°C° 0 mm 1 mps 727 mmHg 84%
    03:00 +15°C° 0 mm 1 mps 727 mmHg 83%
    04:00 +15°C° 0 mm 1 mps 727 mmHg 82%
    05:00 +14°C° 0 mm 0 mps 727 mmHg 82%
    06:00 +18°C° 0 mm 1 mps 727 mmHg 75%
    07:00 +20°C° 0 mm 1 mps 727 mmHg 69%
    08:00 +22°C° 0 mm 1 mps 727 mmHg 62%
    09:00 +23°C° 0 mm 1 mps 728 mmHg 59%
    10:00 +24°C° 0 mm 2 mps 728 mmHg 55%
    11:00 +26°C° 0 mm 2 mps 728 mmHg 51%
    12:00 +26°C° 0 mm 3 mps 728 mmHg 50%
    13:00 +27°C° 0 mm 3 mps 727 mmHg 50%
    14:00 +28°C° 0 mm 3 mps 727 mmHg 49%
    15:00 +27°C° 0 mm 3 mps 727 mmHg 50%
    16:00 +27°C° 0 mm 3 mps 726 mmHg 52%
    17:00 +27°C° 0 mm 3 mps 726 mmHg 54%
    18:00 +25°C° 0 mm 3 mps 726 mmHg 62%
    19:00 +23°C° 0 mm 2 mps 726 mmHg 69%
    20:00 +19°C° 0 mm 2 mps 726 mmHg 77%
    21:00 +19°C° 0 mm 2 mps 726 mmHg 79%
    22:00 +18°C° 0 mm 2 mps 726 mmHg 81%
    23:00 +18°C° 0 mm 1 mps 725 mmHg 83%

    28 May, Tuesday

    Time Temperature Precipitation Wind Pressure Humidity
    00:00 +18°C° 0 mm 1 mps 725 mmHg 82%
    01:00 +16°C° 0 mm 1 mps 725 mmHg 82%
    02:00 +15°C° 0 mm 1 mps 725 mmHg 81%
    03:00 +15°C° 0 mm 1 mps 724 mmHg 80%
    04:00 +15°C° 0 mm 1 mps 724 mmHg 78%
    05:00 +14°C° 0 mm 0 mps 724 mmHg 76%
    06:00 +18°C° 0 mm 1 mps 724 mmHg 72%
    07:00 +20°C° 0 mm 1 mps 724 mmHg 67%
    08:00 +23°C° 0 mm 1 mps 724 mmHg 62%
    09:00 +24°C° 0 mm 3 mps 724 mmHg 57%
    10:00 +26°C° 0 mm 4 mps 724 mmHg 52%
    11:00 +27°C° 0 mm 5 mps 724 mmHg 47%
    12:00 +27°C° 0 mm 6 mps 724 mmHg 46%
    13:00 +27°C° 0 mm 6 mps 723 mmHg 45%
    14:00 +27°C° 0 mm 7 mps 723 mmHg 44%
    15:00 +26°C° 0 mm 6 mps 722 mmHg 46%
    16:00 +24°C° 0 mm 6 mps 722 mmHg 49%
    17:00 +23°C° 0 mm 6 mps 722 mmHg 52%
    18:00 +21°C° 0 mm 5 mps 722 mmHg 62%
    19:00 +19°C° 0 mm 4 mps 721 mmHg 72%
    20:00 +17°C° 0 mm 3 mps 721 mmHg 82%
    21:00 +16°C° 0 mm 3 mps 722 mmHg 83%
    22:00 +15°C° 0 mm 4 mps 722 mmHg 84%
    23:00 +15°C° 0 mm 4 mps 722 mmHg 86%

    29 May, Wednesday

    Time Temperature Precipitation Wind Pressure Humidity
    00:00 +15°C° 0 mm 4 mps 722 mmHg 86%
    01:00 +16°C° 0 mm 3 mps 722 mmHg 86%
    02:00 +14°C° 0 mm 3 mps 722 mmHg 86%
    03:00 +14°C° 0 mm 3 mps 722 mmHg 87%
    04:00 +14°C° 0 mm 3 mps 722 mmHg 88%
    05:00 +15°C° 0 mm 2 mps 722 mmHg 89%
    06:00 +17°C° 0 mm 3 mps 723 mmHg 83%
    07:00 +19°C° 0 mm 3 mps 723 mmHg 77%
    08:00 +21°C° 0 mm 3 mps 724 mmHg 72%
    09:00 +22°C° 0 mm 3 mps 724 mmHg 67%
    10:00 +23°C° 0 mm 4 mps 724 mmHg 63%
    11:00 +26°C° 0 mm 4 mps 724 mmHg 59%
    12:00 +26°C° 0 mm 5 mps 724 mmHg 58%
    13:00 +26°C° 0 mm 5 mps 724 mmHg 57%
    14:00 +27°C° 0 mm 5 mps 724 mmHg 56%
    15:00 +27°C° 0 mm 5 mps 724 mmHg 58%
    16:00 +26°C° 0 mm 5 mps 724 mmHg 60%
    17:00 +26°C° 0 mm 5 mps 724 mmHg 62%
    18:00 +23°C° 0.1 mm 4 mps 724 mmHg 70%
    19:00 +21°C° 0.1 mm 4 mps 724 mmHg 77%
    20:00 +19°C° 0.1 mm 3 mps 724 mmHg 85%
    21:00 +18°C° 0 mm 3 mps 724 mmHg 85%
    22:00 +17°C° 0 mm 3 mps 724 mmHg 86%
    23:00 +17°C° 0 mm 2 mps 725 mmHg 86%

    30 May, Thursday

    Time Temperature Precipitation Wind Pressure Humidity
    00:00 +17°C° 0 mm 2 mps 725 mmHg 84%
    01:00 +17°C° 0 mm 2 mps 725 mmHg 83%
    02:00 +18°C° 0 mm 1 mps 725 mmHg 81%
    03:00 +18°C° 0 mm 1 mps 725 mmHg 80%
    04:00 +18°C° 0 mm 1 mps 725 mmHg 80%
    05:00 +18°C° 0 mm 1 mps 725 mmHg 80%
    06:00 +19°C° 0 mm 2 mps 726 mmHg 74%
    07:00 +20°C° 0 mm 2 mps 726 mmHg 69%
    08:00 +23°C° 0 mm 2 mps 727 mmHg 63%
    09:00 +24°C° 0.1 mm 2 mps 727 mmHg 61%
    10:00 +25°C° 0.1 mm 2 mps 727 mmHg 58%
    11:00 +26°C° 0.1 mm 2 mps 727 mmHg 56%
    12:00 +26°C° 1.4 mm 2 mps 726 mmHg 58%
    13:00 +26°C° 1.4 mm 2 mps 726 mmHg 59%
    14:00 +27°C° 1.4 mm 1 mps 726 mmHg 61%
    15:00 +26°C° 1 mm 1 mps 726 mmHg 61%
    16:00 +26°C° 1 mm 1 mps 726 mmHg 61%
    17:00 +26°C° 1 mm 1 mps 726 mmHg 61%
    18:00 +24°C° 0.2 mm 1 mps 726 mmHg 68%
    19:00 +22°C° 0.2 mm 1 mps 725 mmHg 75%
    20:00 +19°C° 0.2 mm 0 mps 725 mmHg 82%
    21:00 +18°C° 0 mm 0 mps 725 mmHg 84%
    22:00 +18°C° 0 mm 0 mps 725 mmHg 85%
    23:00 +17°C° 0 mm 0 mps 725 mmHg 87%
    Show more